Home > Weather > Neustrelitz > Past weeks

Flag for Germany Weather for the Past 2 Weeks in Neustrelitz, Mecklenburg-Western Pomerania, Germany

Now
48 °F

Passing clouds.


Feels Like: 47 °F
Forecast: 43 / 62 °F
Wind: 3 mph from North

Location: Laage

Current Time: Apr 30, 2016 at 2:04:58 AM

Latest Report: Apr 30, 2016 at 1:20 AM


Visibility: N/A

Pressure: 30.04 "Hg

Humidity: 62%

Dew Point: 36 °F

Location of NeustrelitzLocation

Historic Weather in Neustrelitz — Graph

°F

Neustrelitz Temperature Yesterday

Maximum temperature yesterday: 55 °F (at 4:20 PM)
Minimum temperature yesterday: 36 °F (at 1:20 AM)
Average temperature yesterday: 46 °F

High & Low Weather Summary for the Past Weeks

 TemperatureHumidityPressure
High59 °F (Apr 16, 2:20 PM)100% (Apr 15, 3:20 AM)30.36 "Hg (Apr 15, 3:20 AM)
Low32 °F (Apr 25, 3:20 AM)27% (Apr 23, 6:20 PM)29.42 "Hg (Apr 26, 3:20 AM)
Average44 °F75%29.82 "Hg
* Reported Apr 15 12:20 AM — Apr 30 12:20 AM, Neustrelitz, Weather by CustomWeather, © 2016

Note: Actual official high and low records may vary slightly from our data, if they occured in-between our weather recording intervals... More about our weather records

Advertising

Neustrelitz Weather History for the Previous 24 Hours

Scroll right to see more
 ConditionsComfort  
Time TempWeatherWind HumidityBarometerVisibility
12:20 AM
Sat, Apr 30
48 °FPassing clouds.7 mph58%30.04 "HgN/A
11:20 PM
Fri, Apr 29
48 °FPassing clouds.6 mph58%30.04 "HgN/A
10:20 PM48 °FMostly cloudy.6 mph58%30.04 "HgN/A
9:20 PM50 °FBroken clouds.6 mph54%30.04 "HgN/A
8:20 PM54 °FBroken clouds.7 mph44%30.04 "HgN/A
7:20 PM54 °FBroken clouds.8 mph44%30.01 "HgN/A
6:20 PM54 °FBroken clouds.13 mph44%30.01 "HgN/A
5:20 PM55 °FBroken clouds.15 mph41%30.01 "HgN/A
4:20 PM55 °FBroken clouds.18 mph41%30.01 "HgN/A
3:20 PM54 °FCool.N/A44%30.01 "Hg12 mi
2:20 PM54 °FBroken clouds.12 mph47%30.01 "HgN/A
1:20 PM54 °FBroken clouds.14 mph47%30.01 "HgN/A
12:20 PM52 °FBroken clouds.13 mph54%30.01 "HgN/A
11:20 AM52 °FBroken clouds.13 mph50%30.01 "HgN/A
10:20 AM48 °FBroken clouds.8 mph62%30.01 "HgN/A
9:20 AM46 °FPartly sunny.7 mph66%30.01 "HgN/A
8:20 AM43 °FBroken clouds.7 mph76%30.01 "HgN/A
7:20 AM37 °FScattered clouds.5 mph87%30.01 "HgN/A
6:20 AM36 °FPassing clouds.5 mph93%29.98 "HgN/A
5:20 AM36 °FPassing clouds.3 mph93%29.98 "HgN/A
4:20 AM36 °FPassing clouds.5 mph93%29.98 "HgN/A
3:20 AM36 °FPassing clouds.6 mph93%29.98 "HgN/A
2:20 AM36 °FPassing clouds.5 mph93%29.98 "HgN/A
Weather by CustomWeather, © 2016

See weather overviewHow to use our weather pages